Location: Buckland
(65.9785°N, 161.1281°W)
Time: 23:44:42
(UTC+00:00)

Transit 4A - Pass Details

Date: 02 December 2020
Orbit: 864 x 980 km, 66.8° (Epoch: 20 January)

Event Time Altitude Azimuth Distance (km) Brightness Sun altitude
Rises 03:23:55 0° 309° (NW) 3,694 11.4 -13.2°
Reaches altitude 10° 03:27:08 10° 294° (WNW) 2,736 11.0 -13.5°
Maximum altitude 03:31:37 21° 249° (WSW) 2,056 10.8 -13.9°
Drops below altitude 10° 03:36:03 10° 204° (SSW) 2,689 11.0 -14.4°
Sets 03:39:12 0° 189° (S) 3,612 11.4 -14.7°
